Date String (YYYY-MM-DD hh:mm:ss) UTC,Instrument flags,absolute air pressure of the measurement (hPa),sample flow rate (lpm),inlet stack bypass flow (lpm),air temperature of the measurement (°C),ambient temperature measured by the external sensor (°C),aerosol sample conditioner tube jacket temperature (°C),OPC LED temperature (°C),internal box temperature (°C),relative humidity of the measurement (%),span deviation,mass concentration of particles derived from Lorenz-Mie calculation of OPC scattering (μg/m³),mass concentration of particles derived from Lorenz-Mie calculation of OPC scattering (μg/m³),mass concentration of particles derived from Lorenz-Mie calculation of OPC scattering (μg/m³)
DateTimeUTC,F1_M11,P_M11,Q1_M11,Q2_M11,T1_M11,T2_M11,T3_M11,T4_M11,T5_M11,U1_M11,ZSPAN_M11,X0_M11,X2_M11,X1_M11
2023-09-09 13:00:00,SystemResetWarning,0836.6,5.00,000.00,028.8,027.7,000.0,037.0,030.5,11.3,0000.0,0012.42,0002.46,0001.17
2023-09-09 13:01:00,SystemResetWarning,0836.6,5.00,000.00,028.8,027.7,000.0,037.0,030.5,11.3,0000.0,0012.39,0002.45,0001.17
2023-09-09 13:02:00,SystemResetWarning,0836.6,5.01,000.00,028.8,027.7,000.0,037.1,030.5,11.3,0000.0,0012.31,0002.36,0001.17
2023-09-09 13:03:00,SystemResetWarning,0836.6,5.01,000.00,028.9,027.8,000.0,037.1,030.5,11.3,0000.0,0011.25,0002.26,0001.17
2023-09-09 13:04:00,SystemResetWarning,0836.6,4.99,000.00,028.9,027.8,000.0,037.1,030.5,11.4,0000.0,0010.33,0002.18,0001.15
2023-09-09 13:05:00,SystemResetWarning,0836.6,4.99,000.00,028.9,027.6,000.0,037.1,030.5,11.3,0000.0,0010.00,0002.09,0001.14
2023-09-09 13:06:00,SystemResetWarning,0836.6,4.99,000.00,028.9,026.0,000.0,037.1,030.3,11.3,0000.0,0010.08,0002.09,0001.14
2023-09-09 13:07:00,SystemResetWarning,0836.6,5.01,000.00,028.8,025.1,000.0,037.0,030.1,11.3,0000.0,0009.68,0002.07,0001.14
2023-09-09 13:08:00,SystemResetWarning,0836.6,5.01,000.00,028.7,025.1,000.0,036.9,030.0,11.3,0000.0,0010.27,0002.13,0001.15
2023-09-09 13:09:00,SystemResetWarning,0836.6,4.99,000.00,028.6,025.4,000.0,037.0,029.8,11.4,0000.0,0010.18,0002.15,0001.15
2023-09-09 13:10:00,SystemResetWarning,0836.7,5.00,000.00,028.6,025.7,000.0,037.0,029.8,11.2,0000.0,0009.95,0002.19,0001.15
2023-09-09 13:11:00,SystemResetWarning,0836.7,5.00,000.00,028.5,026.0,000.0,037.0,029.9,11.1,0000.0,0009.25,0002.22,0001.16
2023-09-09 13:12:00,SystemResetWarning,0836.6,5.01,000.00,028.5,026.3,000.0,037.0,029.9,11.1,0000.0,0009.90,0002.25,0001.16
2023-09-09 13:13:00,SystemResetWarning,0836.6,5.01,000.00,028.5,026.6,000.0,037.0,030.0,11.1,0000.0,0009.81,0002.23,0001.15
2023-09-09 13:14:00,SystemResetWarning,0836.6,4.99,000.00,028.5,026.8,000.0,037.0,030.0,11.1,0000.0,0009.79,0002.20,0001.14
2023-09-09 13:15:00,SystemResetWarning,0836.6,5.00,000.00,028.5,026.9,000.0,037.0,030.0,11.0,0000.0,0009.94,0002.23,0001.13
2023-09-09 13:16:00,SystemResetWarning,0836.6,5.00,000.00,028.5,027.1,000.0,037.0,030.1,11.0,0000.0,0010.56,0002.31,0001.14
2023-09-09 13:17:00,SystemResetWarning,0836.6,5.00,000.00,028.6,027.2,000.0,037.0,030.1,11.0,0000.0,0010.63,0002.35,0001.14
2023-09-09 13:18:00,SystemResetWarning,0836.6,5.00,000.00,028.6,027.3,000.0,037.0,030.1,10.9,0000.0,0010.11,0002.26,0001.13
2023-09-09 13:19:00,SystemResetWarning,0836.6,5.00,000.00,028.6,027.4,000.0,037.0,030.2,10.9,0000.0,0008.90,0002.14,0001.10
2023-09-09 13:20:00,SystemResetWarning,0836.7,5.00,000.00,028.6,027.4,000.0,037.0,030.2,10.9,0000.0,0008.22,0002.07,0001.10
2023-09-09 13:21:00,SystemResetWarning,0836.7,5.00,000.00,028.7,027.5,000.0,037.0,030.2,11.2,0000.0,0007.86,0002.04,0001.09
2023-09-09 13:22:00,SystemResetWarning,0836.7,5.00,000.00,028.7,027.5,000.0,037.0,030.2,12.0,0000.0,0007.87,0002.06,0001.09
2023-09-09 13:23:00,SystemResetWarning,0836.7,5.00,000.00,028.7,027.5,000.0,037.0,030.2,12.0,0000.0,0007.12,0002.09,0001.12
2023-09-09 13:24:00,SystemResetWarning,0836.7,5.00,000.00,028.7,027.6,000.0,037.1,030.3,11.6,0000.0,0007.17,0002.16,0001.14
2023-09-09 13:25:00,SystemResetWarning,0836.7,5.00,000.00,028.7,027.6,000.0,037.1,030.3,11.3,0000.0,0007.19,0002.21,0001.16
2023-09-09 13:26:00,SystemResetWarning,0836.7,5.00,000.00,028.8,027.6,000.0,037.1,030.3,11.2,0000.0,0007.24,0002.20,0001.19
2023-09-09 13:27:00,SystemResetWarning,0836.7,5.00,000.00,028.8,027.7,000.0,037.1,030.4,11.1,0000.0,0006.52,0002.17,0001.20
2023-09-09 13:28:00,SystemResetWarning,0836.8,5.00,000.00,028.8,027.7,000.0,037.2,030.4,11.1,0000.0,0006.26,0002.18,0001.22
2023-09-09 13:29:00,SystemResetWarning,0836.8,5.00,000.00,028.8,027.7,000.0,037.2,030.4,11.0,0000.0,0006.23,0002.21,0001.24
2023-09-09 13:30:00,SystemResetWarning,0836.8,4.99,000.00,028.9,027.8,000.0,037.2,030.4,10.9,0000.0,0006.36,0002.24,0001.25
2023-09-09 13:31:00,SystemResetWarning,0836.8,4.99,000.00,028.9,027.2,000.0,037.2,030.4,10.8,0000.0,0006.29,0002.23,0001.25
2023-09-09 13:32:00,SystemResetWarning,0836.8,5.00,000.00,028.8,025.4,000.0,037.1,030.1,10.8,0000.0,0005.45,0002.18,0001.24
2023-09-09 13:33:00,SystemResetWarning,0836.7,5.01,000.00,028.7,024.5,000.0,037.0,029.9,10.8,0000.0,0005.19,0002.10,0001.23
2023-09-09 13:34:00,SystemResetWarning,0836.8,5.01,000.00,028.7,024.7,000.0,036.9,029.9,11.0,0000.0,0005.41,0002.01,0001.21
2023-09-09 13:35:00,SystemResetWarning,0836.8,5.01,000.00,028.5,025.0,000.0,036.9,029.7,12.8,0000.0,0006.71,0001.91,0001.18
2023-09-09 13:36:00,SystemResetWarning,0836.8,4.99,000.00,028.5,025.3,000.0,036.9,029.7,12.9,0000.0,0006.53,0001.84,0001.16
2023-09-09 13:37:00,SystemResetWarning,0836.8,5.00,000.00,028.4,025.7,000.0,036.9,029.7,12.4,0000.0,0005.90,0001.82,0001.14
2023-09-09 13:38:00,SystemResetWarning,0836.9,5.00,000.00,028.4,026.0,000.0,036.9,029.8,11.5,0000.0,0005.29,0001.76,0001.12
2023-09-09 13:39:00,SystemResetWarning,0836.9,5.00,000.00,028.4,026.3,000.0,036.9,029.8,11.5,0000.0,0004.90,0001.69,0001.10
2023-09-09 13:40:00,SystemResetWarning,0836.9,5.01,000.00,028.4,026.5,000.0,036.9,029.9,11.5,0000.0,0004.92,0001.67,0001.08
2023-09-09 13:41:00,SystemResetWarning,0836.9,5.00,000.00,028.4,026.7,000.0,036.9,029.9,12.0,0000.0,0005.24,0001.62,0001.07
2023-09-09 13:42:00,SystemResetWarning,0836.9,5.00,000.00,028.4,026.8,000.0,036.9,029.9,11.8,0000.0,0005.94,0001.58,0001.07
2023-09-09 13:43:00,SystemResetWarning,0836.9,4.99,000.00,028.5,027.0,000.0,036.9,030.0,11.7,0000.0,0007.23,0001.56,0001.08
2023-09-09 13:44:00,SystemResetWarning,0836.9,5.00,000.00,028.5,027.1,000.0,036.9,030.0,11.5,0000.0,0007.68,0001.58,0001.09
2023-09-09 13:45:00,SystemResetWarning,0836.9,4.99,000.00,028.5,027.2,000.0,036.9,030.0,11.6,0000.0,0007.69,0001.62,0001.09
2023-09-09 13:46:00,SystemResetWarning,0836.9,5.00,000.00,028.5,027.3,000.0,036.9,030.1,12.0,0000.0,0006.37,0001.65,0001.10
2023-09-09 13:47:00,SystemResetWarning,0837.0,5.00,000.00,028.5,027.3,000.0,036.9,030.1,12.1,0000.0,0006.28,0001.66,0001.11
2023-09-09 13:48:00,SystemResetWarning,0837.0,5.00,000.00,028.6,027.4,000.0,036.9,030.1,12.2,0000.0,0006.29,0001.63,0001.10
2023-09-09 13:49:00,SystemResetWarning,0837.0,5.01,000.00,028.6,027.4,000.0,037.0,030.2,12.1,0000.0,0006.29,0001.63,0001.10
2023-09-09 13:50:00,SystemResetWarning,0836.9,5.00,000.00,028.6,027.5,000.0,037.0,030.2,12.1,0000.0,0006.96,0001.63,0001.09
2023-09-09 13:51:00,SystemResetWarning,0836.9,5.00,000.00,028.6,027.5,000.0,037.0,030.2,12.4,0000.0,0007.27,0001.62,0001.09
2023-09-09 13:52:00,SystemResetWarning,0837.0,5.00,000.00,028.7,027.6,000.0,037.0,030.3,12.7,0000.0,0007.30,0001.65,0001.09
2023-09-09 13:53:00,SystemResetWarning,0837.0,5.00,000.00,028.7,027.6,000.0,037.1,030.3,12.6,0000.0,0006.75,0001.66,0001.08
2023-09-09 13:54:00,SystemResetWarning,0837.0,4.99,000.00,028.7,027.7,000.0,037.1,030.3,12.4,0000.0,0005.20,0001.69,0001.08
2023-09-09 13:55:00,SystemResetWarning,0837.1,4.99,000.00,028.8,027.7,000.0,037.1,030.3,12.2,0000.0,0004.33,0001.65,0001.08
2023-09-09 13:56:00,SystemResetWarning,0837.1,5.00,000.00,028.8,027.7,000.0,037.1,030.4,12.1,0000.0,0004.25,0001.62,0001.08
2023-09-09 13:57:00,SystemResetWarning,0837.1,5.00,000.00,028.8,027.8,000.0,037.1,030.4,12.2,0000.0,0004.27,0001.62,0001.08
2023-09-09 13:58:00,SystemResetWarning,0837.2,5.00,000.00,028.8,026.8,000.0,037.1,030.4,12.3,0000.0,0004.40,0001.63,0001.08
2023-09-09 13:59:00,SystemResetWarning,0837.2,4.99,000.00,028.8,025.2,000.0,037.0,030.1,12.6,0000.0,0004.47,0001.65,0001.09
